Location: Unspecified
(0.0000°N, 0.0000°E)
Time: 07:43:16
(UTC+00:00)

BlueWalker 3 - Pass Details

Date: 01 November 2024
Orbit: 470 x 481 km, 53.2° (Epoch: 10 November)

Event Time Altitude Azimuth Distance (km) Brightness Sun altitude
Exits shadow 03:50:19 30° 125° (SE) 857 3.6 -27.3°
Drops below altitude 10° 03:52:23 10° 137° (SE) 1,630 5.3 -26.8°
Sets 03:54:34 0° 140° (SE) 2,512 6.3 -26.3°
